#datetime,building,power
2024-01-11T00:00:00,mnr,5.54
2024-01-11T00:01:00,mnr,5.56
2024-01-11T00:02:00,mnr,5.60
2024-01-11T00:03:00,mnr,5.60
2024-01-11T00:04:00,mnr,5.64
2024-01-11T00:05:00,mnr,6.13
2024-01-11T00:06:00,mnr,5.70
2024-01-11T00:07:00,mnr,5.98
2024-01-11T00:08:00,mnr,5.69
2024-01-11T00:09:00,mnr,5.76
2024-01-11T00:10:00,mnr,5.82
2024-01-11T00:11:00,mnr,5.86
2024-01-11T00:12:00,mnr,5.78
2024-01-11T00:13:00,mnr,5.80
2024-01-11T00:14:00,mnr,5.30
2024-01-11T00:15:00,mnr,5.21
2024-01-11T00:16:00,mnr,5.35
2024-01-11T00:17:00,mnr,5.27
2024-01-11T00:18:00,mnr,5.24
2024-01-11T00:19:00,mnr,5.15
2024-01-11T00:20:00,mnr,5.11
2024-01-11T00:21:00,mnr,5.09
2024-01-11T00:22:00,mnr,5.99
2024-01-11T00:23:00,mnr,4.89
2024-01-11T00:24:00,mnr,5.31
2024-01-11T00:25:00,mnr,4.41
2024-01-11T00:26:00,mnr,4.42
2024-01-11T00:27:00,mnr,4.45
2024-01-11T00:28:00,mnr,4.39
2024-01-11T00:29:00,mnr,4.49
2024-01-11T00:30:00,mnr,4.41
2024-01-11T00:31:00,mnr,4.40
2024-01-11T00:32:00,mnr,4.39
2024-01-11T00:33:00,mnr,4.42
2024-01-11T00:34:00,mnr,4.49
2024-01-11T00:35:00,mnr,4.35
2024-01-11T00:36:00,mnr,5.00
2024-01-11T00:37:00,mnr,4.33
2024-01-11T00:38:00,mnr,4.31
2024-01-11T00:39:00,mnr,4.35
2024-01-11T00:40:00,mnr,4.41
2024-01-11T00:41:00,mnr,4.35
2024-01-11T00:42:00,mnr,4.38
2024-01-11T00:43:00,mnr,5.04
2024-01-11T00:44:00,mnr,4.40
2024-01-11T00:45:00,mnr,4.38
2024-01-11T00:46:00,mnr,4.34
2024-01-11T00:47:00,mnr,4.36
2024-01-11T00:48:00,mnr,4.43
2024-01-11T00:49:00,mnr,4.42
2024-01-11T00:50:00,mnr,4.37
2024-01-11T00:51:00,mnr,4.40
2024-01-11T00:52:00,mnr,5.13
2024-01-11T00:53:00,mnr,4.38
2024-01-11T00:54:00,mnr,4.34
2024-01-11T00:55:00,mnr,4.34
2024-01-11T00:56:00,mnr,4.21
2024-01-11T00:57:00,mnr,4.23
2024-01-11T00:58:00,mnr,4.29
2024-01-11T00:59:00,mnr,4.24
2024-01-11T01:00:00,mnr,4.21
2024-01-11T01:01:00,mnr,5.61
2024-01-11T01:02:00,mnr,5.61
2024-01-11T01:03:00,mnr,5.03
2024-01-11T01:04:00,mnr,4.26
2024-01-11T01:05:00,mnr,4.27
2024-01-11T01:06:00,mnr,4.67
2024-01-11T01:07:00,mnr,6.05
2024-01-11T01:08:00,mnr,4.75
2024-01-11T01:09:00,mnr,4.72
2024-01-11T01:10:00,mnr,4.72
2024-01-11T01:11:00,mnr,5.10
2024-01-11T01:12:00,mnr,4.61
2024-01-11T01:13:00,mnr,4.68
2024-01-11T01:14:00,mnr,4.66
2024-01-11T01:15:00,mnr,4.68
2024-01-11T01:16:00,mnr,4.68
2024-01-11T01:17:00,mnr,5.33
2024-01-11T01:18:00,mnr,4.66
2024-01-11T01:19:00,mnr,4.81
2024-01-11T01:20:00,mnr,4.81
2024-01-11T01:21:00,mnr,4.79
2024-01-11T01:22:00,mnr,5.51
2024-01-11T01:23:00,mnr,4.77
2024-01-11T01:24:00,mnr,5.49
2024-01-11T01:25:00,mnr,4.75
2024-01-11T01:26:00,mnr,4.77
2024-01-11T01:27:00,mnr,4.73
2024-01-11T01:28:00,mnr,5.40
2024-01-11T01:29:00,mnr,4.76
2024-01-11T01:30:00,mnr,4.74
2024-01-11T01:31:00,mnr,4.77
2024-01-11T01:32:00,mnr,4.75
2024-01-11T01:33:00,mnr,5.44
2024-01-11T01:34:00,mnr,4.61
2024-01-11T01:35:00,mnr,4.66
2024-01-11T01:36:00,mnr,4.67
2024-01-11T01:37:00,mnr,4.65
2024-01-11T01:38:00,mnr,4.83
2024-01-11T01:39:00,mnr,4.86
2024-01-11T01:40:00,mnr,4.80
2024-01-11T01:41:00,mnr,4.81
2024-01-11T01:42:00,mnr,4.85
2024-01-11T01:43:00,mnr,4.79
2024-01-11T01:44:00,mnr,4.90
2024-01-11T01:45:00,mnr,4.80
2024-01-11T01:46:00,mnr,4.80
2024-01-11T01:47:00,mnr,5.10
2024-01-11T01:48:00,mnr,4.78
2024-01-11T01:49:00,mnr,4.76
2024-01-11T01:50:00,mnr,5.37
2024-01-11T01:51:00,mnr,4.75
2024-01-11T01:52:00,mnr,4.79
2024-01-11T01:53:00,mnr,4.78
2024-01-11T01:54:00,mnr,4.86
2024-01-11T01:55:00,mnr,4.71
2024-01-11T01:56:00,mnr,4.86
2024-01-11T01:57:00,mnr,5.40
2024-01-11T01:58:00,mnr,4.96
2024-01-11T01:59:00,mnr,4.90
2024-01-11T02:00:00,mnr,4.85
2024-01-11T02:01:00,mnr,4.99
2024-01-11T02:02:00,mnr,5.03
2024-01-11T02:03:00,mnr,4.98
2024-01-11T02:04:00,mnr,4.99
2024-01-11T02:05:00,mnr,4.52
2024-01-11T02:06:00,mnr,5.05
2024-01-11T02:07:00,mnr,4.51
2024-01-11T02:08:00,mnr,4.57
2024-01-11T02:09:00,mnr,4.52
2024-01-11T02:10:00,mnr,4.44
2024-01-11T02:11:00,mnr,4.41
2024-01-11T02:12:00,mnr,4.43
2024-01-11T02:13:00,mnr,4.82
2024-01-11T02:14:00,mnr,4.37
2024-01-11T02:15:00,mnr,5.08
2024-01-11T02:16:00,mnr,4.36
2024-01-11T02:17:00,mnr,4.34
2024-01-11T02:18:00,mnr,4.35
2024-01-11T02:19:00,mnr,4.32
2024-01-11T02:20:00,mnr,5.13
2024-01-11T02:21:00,mnr,4.95
2024-01-11T02:22:00,mnr,4.41
2024-01-11T02:23:00,mnr,4.42
2024-01-11T02:24:00,mnr,4.40
2024-01-11T02:25:00,mnr,4.57
2024-01-11T02:26:00,mnr,4.33
2024-01-11T02:27:00,mnr,4.42
2024-01-11T02:28:00,mnr,5.08
2024-01-11T02:29:00,mnr,4.42
2024-01-11T02:30:00,mnr,4.97
2024-01-11T02:31:00,mnr,4.33
2024-01-11T02:32:00,mnr,4.36
2024-01-11T02:33:00,mnr,5.03
2024-01-11T02:34:00,mnr,4.30
2024-01-11T02:35:00,mnr,4.59
2024-01-11T02:36:00,mnr,4.31
2024-01-11T02:37:00,mnr,4.28
2024-01-11T02:38:00,mnr,4.36
2024-01-11T02:39:00,mnr,4.31
2024-01-11T02:40:00,mnr,4.29
2024-01-11T02:41:00,mnr,4.33
2024-01-11T02:42:00,mnr,4.34
2024-01-11T02:43:00,mnr,4.25
2024-01-11T02:44:00,mnr,4.23
2024-01-11T02:45:00,mnr,4.21
2024-01-11T02:46:00,mnr,4.48
2024-01-11T02:47:00,mnr,4.72
2024-01-11T02:48:00,mnr,4.64
2024-01-11T02:49:00,mnr,4.71
2024-01-11T02:50:00,mnr,4.65
2024-01-11T02:51:00,mnr,4.69
2024-01-11T02:52:00,mnr,5.47
2024-01-11T02:53:00,mnr,5.76
2024-01-11T02:54:00,mnr,4.72
2024-01-11T02:55:00,mnr,5.00
2024-01-11T02:56:00,mnr,4.67
2024-01-11T02:57:00,mnr,4.77
2024-01-11T02:58:00,mnr,5.55
2024-01-11T02:59:00,mnr,5.25
2024-01-11T03:00:00,mnr,5.56
2024-01-11T03:01:00,mnr,5.56
2024-01-11T03:02:00,mnr,5.17
2024-01-11T03:03:00,mnr,4.95
2024-01-11T03:04:00,mnr,4.89
2024-01-11T03:05:00,mnr,5.36
2024-01-11T03:06:00,mnr,4.91
2024-01-11T03:07:00,mnr,4.99
2024-01-11T03:08:00,mnr,4.99
2024-01-11T03:09:00,mnr,4.95
2024-01-11T03:10:00,mnr,5.40
2024-01-11T03:11:00,mnr,4.92
2024-01-11T03:12:00,mnr,4.89
2024-01-11T03:13:00,mnr,4.92
2024-01-11T03:14:00,mnr,4.86
2024-01-11T03:15:00,mnr,5.41
2024-01-11T03:16:00,mnr,4.78
2024-01-11T03:17:00,mnr,4.82
2024-01-11T03:18:00,mnr,4.81
2024-01-11T03:19:00,mnr,4.69
2024-01-11T03:20:00,mnr,6.33
2024-01-11T03:21:00,mnr,4.78
2024-01-11T03:22:00,mnr,4.80
2024-01-11T03:23:00,mnr,4.81
2024-01-11T03:24:00,mnr,5.43
2024-01-11T03:25:00,mnr,4.79
2024-01-11T03:26:00,mnr,4.77
2024-01-11T03:27:00,mnr,4.77
2024-01-11T03:28:00,mnr,5.36
2024-01-11T03:29:00,mnr,4.75
2024-01-11T03:30:00,mnr,5.55
2024-01-11T03:31:00,mnr,4.72
2024-01-11T03:32:00,mnr,4.80
2024-01-11T03:33:00,mnr,4.75
2024-01-11T03:34:00,mnr,4.69
2024-01-11T03:35:00,mnr,4.67
2024-01-11T03:36:00,mnr,4.77
2024-01-11T03:37:00,mnr,4.70
2024-01-11T03:38:00,mnr,4.70
2024-01-11T03:39:00,mnr,5.35
2024-01-11T03:40:00,mnr,4.68
2024-01-11T03:41:00,mnr,4.79
2024-01-11T03:42:00,mnr,4.68
2024-01-11T03:43:00,mnr,4.74
2024-01-11T03:44:00,mnr,4.78
2024-01-11T03:45:00,mnr,4.77
2024-01-11T03:46:00,mnr,4.31
2024-01-11T03:47:00,mnr,4.55
2024-01-11T03:48:00,mnr,4.34
2024-01-11T03:49:00,mnr,4.28
2024-01-11T03:50:00,mnr,4.30
2024-01-11T03:51:00,mnr,4.47
2024-01-11T03:52:00,mnr,4.38
2024-01-11T03:53:00,mnr,4.35
2024-01-11T03:54:00,mnr,6.39
2024-01-11T03:55:00,mnr,4.96
2024-01-11T03:56:00,mnr,4.43
2024-01-11T03:57:00,mnr,5.03
2024-01-11T03:58:00,mnr,4.40
2024-01-11T03:59:00,mnr,4.48
2024-01-11T04:00:00,mnr,4.45
2024-01-11T04:01:00,mnr,4.48
2024-01-11T04:02:00,mnr,4.40
2024-01-11T04:03:00,mnr,4.51
2024-01-11T04:04:00,mnr,4.41
2024-01-11T04:05:00,mnr,4.91
2024-01-11T04:06:00,mnr,5.48
2024-01-11T04:07:00,mnr,5.03
2024-01-11T04:08:00,mnr,4.43
2024-01-11T04:09:00,mnr,4.40
2024-01-11T04:10:00,mnr,4.37
2024-01-11T04:11:00,mnr,4.42
2024-01-11T04:12:00,mnr,4.39
2024-01-11T04:13:00,mnr,4.25
2024-01-11T04:14:00,mnr,5.32
2024-01-11T04:15:00,mnr,5.00
2024-01-11T04:16:00,mnr,4.31
2024-01-11T04:17:00,mnr,4.37
2024-01-11T04:18:00,mnr,4.32
2024-01-11T04:19:00,mnr,4.84
2024-01-11T04:20:00,mnr,4.28
2024-01-11T04:21:00,mnr,4.71
2024-01-11T04:22:00,mnr,4.50
2024-01-11T04:23:00,mnr,5.65
2024-01-11T04:24:00,mnr,4.48
2024-01-11T04:25:00,mnr,4.36
2024-01-11T04:26:00,mnr,4.44
2024-01-11T04:27:00,mnr,4.85
2024-01-11T04:28:00,mnr,4.83
2024-01-11T04:29:00,mnr,4.82
2024-01-11T04:30:00,mnr,4.72
2024-01-11T04:31:00,mnr,5.42
2024-01-11T04:32:00,mnr,5.22
2024-01-11T04:33:00,mnr,4.76
2024-01-11T04:34:00,mnr,4.73
2024-01-11T04:35:00,mnr,4.72
2024-01-11T04:36:00,mnr,5.75
2024-01-11T04:37:00,mnr,4.84
2024-01-11T04:38:00,mnr,4.93
2024-01-11T04:39:00,mnr,4.87
2024-01-11T04:40:00,mnr,5.49
2024-01-11T04:41:00,mnr,4.97
2024-01-11T04:42:00,mnr,4.88
2024-01-11T04:43:00,mnr,4.89
2024-01-11T04:44:00,mnr,4.84
2024-01-11T04:45:00,mnr,4.86
2024-01-11T04:46:00,mnr,4.76
2024-01-11T04:47:00,mnr,4.80
2024-01-11T04:48:00,mnr,4.75
2024-01-11T04:49:00,mnr,4.78
2024-01-11T04:50:00,mnr,5.51
2024-01-11T04:51:00,mnr,4.81
2024-01-11T04:52:00,mnr,4.82
2024-01-11T04:53:00,mnr,4.81
2024-01-11T04:54:00,mnr,4.77
2024-01-11T04:55:00,mnr,5.00
2024-01-11T04:56:00,mnr,4.64
2024-01-11T04:57:00,mnr,4.67
2024-01-11T04:58:00,mnr,4.74
2024-01-11T04:59:00,mnr,4.68
2024-01-11T05:00:00,mnr,4.64
2024-01-11T05:01:00,mnr,4.74
2024-01-11T05:02:00,mnr,4.68
2024-01-11T05:03:00,mnr,4.71
2024-01-11T05:04:00,mnr,4.69
2024-01-11T05:05:00,mnr,5.32
2024-01-11T05:06:00,mnr,4.69
2024-01-11T05:07:00,mnr,4.61
2024-01-11T05:08:00,mnr,4.66
2024-01-11T05:09:00,mnr,4.64
2024-01-11T05:10:00,mnr,4.82
2024-01-11T05:11:00,mnr,5.38
2024-01-11T05:12:00,mnr,4.60
2024-01-11T05:13:00,mnr,4.69
2024-01-11T05:14:00,mnr,4.67
2024-01-11T05:15:00,mnr,5.37
2024-01-11T05:16:00,mnr,5.12
2024-01-11T05:17:00,mnr,4.68
2024-01-11T05:18:00,mnr,4.72
2024-01-11T05:19:00,mnr,4.65
2024-01-11T05:20:00,mnr,4.71
2024-01-11T05:21:00,mnr,4.69
2024-01-11T05:22:00,mnr,4.75
2024-01-11T05:23:00,mnr,5.32
2024-01-11T05:24:00,mnr,6.38
2024-01-11T05:25:00,mnr,5.37
2024-01-11T05:26:00,mnr,5.33
2024-01-11T05:27:00,mnr,4.75
2024-01-11T05:28:00,mnr,4.30
2024-01-11T05:29:00,mnr,4.75
2024-01-11T05:30:00,mnr,4.30
2024-01-11T05:31:00,mnr,4.29
2024-01-11T05:32:00,mnr,4.29
2024-01-11T05:33:00,mnr,4.37
2024-01-11T05:34:00,mnr,4.25
2024-01-11T05:35:00,mnr,4.67
2024-01-11T05:36:00,mnr,4.28
2024-01-11T05:37:00,mnr,5.18
2024-01-11T05:38:00,mnr,4.35
2024-01-11T05:39:00,mnr,5.10
2024-01-11T05:40:00,mnr,5.15
2024-01-11T05:41:00,mnr,4.30
2024-01-11T05:42:00,mnr,4.32
2024-01-11T05:43:00,mnr,4.44
2024-01-11T05:44:00,mnr,4.68
2024-01-11T05:45:00,mnr,4.31
2024-01-11T05:46:00,mnr,4.47
2024-01-11T05:47:00,mnr,4.44
2024-01-11T05:48:00,mnr,4.47
2024-01-11T05:49:00,mnr,4.44
2024-01-11T05:50:00,mnr,4.44
2024-01-11T05:51:00,mnr,4.52
2024-01-11T05:52:00,mnr,4.55
2024-01-11T05:53:00,mnr,4.56
2024-01-11T05:54:00,mnr,4.55
2024-01-11T05:55:00,mnr,4.50
2024-01-11T05:56:00,mnr,5.67
2024-01-11T05:57:00,mnr,4.70
2024-01-11T05:58:00,mnr,5.45
2024-01-11T05:59:00,mnr,6.16
2024-01-11T06:00:00,mnr,6.28
2024-01-11T06:01:00,mnr,6.55
2024-01-11T06:02:00,mnr,8.80
2024-01-11T06:03:00,mnr,9.90
2024-01-11T06:04:00,mnr,10.31
2024-01-11T06:05:00,mnr,10.94
2024-01-11T06:06:00,mnr,12.84
2024-01-11T06:07:00,mnr,16.12
2024-01-11T06:08:00,mnr,13.96
2024-01-11T06:09:00,mnr,13.29
2024-01-11T06:10:00,mnr,13.36
2024-01-11T06:11:00,mnr,12.89
2024-01-11T06:12:00,mnr,13.14
2024-01-11T06:13:00,mnr,13.14
2024-01-11T06:14:00,mnr,13.81
2024-01-11T06:15:00,mnr,10.43
2024-01-11T06:16:00,mnr,14.70
2024-01-11T06:17:00,mnr,14.65
2024-01-11T06:18:00,mnr,15.56
2024-01-11T06:19:00,mnr,15.31
2024-01-11T06:20:00,mnr,16.28
2024-01-11T06:21:00,mnr,14.64
2024-01-11T06:22:00,mnr,16.43
2024-01-11T06:23:00,mnr,15.54
2024-01-11T06:24:00,mnr,15.56
2024-01-11T06:25:00,mnr,15.51
2024-01-11T06:26:00,mnr,16.18
2024-01-11T06:27:00,mnr,16.18
2024-01-11T06:28:00,mnr,15.34
2024-01-11T06:29:00,mnr,16.13
2024-01-11T06:30:00,mnr,15.15
2024-01-11T06:31:00,mnr,19.40
2024-01-11T06:32:00,mnr,15.16
2024-01-11T06:33:00,mnr,15.89
2024-01-11T06:34:00,mnr,15.16
2024-01-11T06:35:00,mnr,15.15
2024-01-11T06:36:00,mnr,14.49
2024-01-11T06:37:00,mnr,14.49
2024-01-11T06:38:00,mnr,14.91
2024-01-11T06:39:00,mnr,14.90
2024-01-11T06:40:00,mnr,14.39
2024-01-11T06:41:00,mnr,16.06
2024-01-11T06:42:00,mnr,14.45
2024-01-11T06:43:00,mnr,14.62
2024-01-11T06:44:00,mnr,14.34
2024-01-11T06:45:00,mnr,15.56
2024-01-11T06:46:00,mnr,15.31
2024-01-11T06:47:00,mnr,15.27
2024-01-11T06:48:00,mnr,15.32
2024-01-11T06:49:00,mnr,15.92
2024-01-11T06:50:00,mnr,14.25
2024-01-11T06:51:00,mnr,14.47
2024-01-11T06:52:00,mnr,14.72
2024-01-11T06:53:00,mnr,14.33
2024-01-11T06:54:00,mnr,15.07
2024-01-11T06:55:00,mnr,15.50
2024-01-11T06:56:00,mnr,14.89
2024-01-11T06:57:00,mnr,14.24
2024-01-11T06:58:00,mnr,14.90
2024-01-11T06:59:00,mnr,14.22
2024-01-11T07:00:00,mnr,14.13
2024-01-11T07:01:00,mnr,14.10
2024-01-11T07:02:00,mnr,14.17
2024-01-11T07:03:00,mnr,14.00
2024-01-11T07:04:00,mnr,13.98
2024-01-11T07:05:00,mnr,14.00
2024-01-11T07:06:00,mnr,14.13
2024-01-11T07:07:00,mnr,10.94
2024-01-11T07:08:00,mnr,14.07
2024-01-11T07:09:00,mnr,14.04
2024-01-11T07:10:00,mnr,13.95
2024-01-11T07:11:00,mnr,14.81
2024-01-11T07:12:00,mnr,14.66
2024-01-11T07:13:00,mnr,14.49
2024-01-11T07:14:00,mnr,14.25
2024-01-11T07:15:00,mnr,15.57
2024-01-11T07:16:00,mnr,15.86
2024-01-11T07:17:00,mnr,15.02
2024-01-11T07:18:00,mnr,15.08
2024-01-11T07:19:00,mnr,14.84
2024-01-11T07:20:00,mnr,14.78
2024-01-11T07:21:00,mnr,14.78
2024-01-11T07:22:00,mnr,14.17
2024-01-11T07:23:00,mnr,15.01
2024-01-11T07:24:00,mnr,14.86
2024-01-11T07:25:00,mnr,14.21
2024-01-11T07:26:00,mnr,13.95
2024-01-11T07:27:00,mnr,24.87
2024-01-11T07:28:00,mnr,16.07
2024-01-11T07:29:00,mnr,14.42
2024-01-11T07:30:00,mnr,13.99
2024-01-11T07:31:00,mnr,14.24
2024-01-11T07:32:00,mnr,14.18
2024-01-11T07:33:00,mnr,14.14
2024-01-11T07:34:00,mnr,14.87
2024-01-11T07:35:00,mnr,14.23
2024-01-11T07:36:00,mnr,14.31
2024-01-11T07:37:00,mnr,14.17
2024-01-11T07:38:00,mnr,14.17
2024-01-11T07:39:00,mnr,14.03
2024-01-11T07:40:00,mnr,14.31
2024-01-11T07:41:00,mnr,14.11
2024-01-11T07:42:00,mnr,14.04
2024-01-11T07:43:00,mnr,14.20
2024-01-11T07:44:00,mnr,14.27
2024-01-11T07:45:00,mnr,14.10
2024-01-11T07:46:00,mnr,14.71
2024-01-11T07:47:00,mnr,14.10
2024-01-11T07:48:00,mnr,14.70
2024-01-11T07:49:00,mnr,13.71
2024-01-11T07:50:00,mnr,13.63
2024-01-11T07:51:00,mnr,13.63
2024-01-11T07:52:00,mnr,13.89
2024-01-11T07:53:00,mnr,14.01
2024-01-11T07:54:00,mnr,13.82
2024-01-11T07:55:00,mnr,13.86
2024-01-11T07:56:00,mnr,15.41
2024-01-11T07:57:00,mnr,15.48
2024-01-11T07:58:00,mnr,15.70
2024-01-11T07:59:00,mnr,15.91
2024-01-11T08:00:00,mnr,15.90
2024-01-11T08:01:00,mnr,15.27
2024-01-11T08:02:00,mnr,15.15
2024-01-11T08:03:00,mnr,15.22
2024-01-11T08:04:00,mnr,15.78
2024-01-11T08:05:00,mnr,15.47
2024-01-11T08:06:00,mnr,15.90
2024-01-11T08:07:00,mnr,16.26
2024-01-11T08:08:00,mnr,16.60
2024-01-11T08:09:00,mnr,16.26
2024-01-11T08:10:00,mnr,16.33
2024-01-11T08:11:00,mnr,16.43
2024-01-11T08:12:00,mnr,14.11
2024-01-11T08:13:00,mnr,16.36
2024-01-11T08:14:00,mnr,16.79
2024-01-11T08:15:00,mnr,16.36
2024-01-11T08:16:00,mnr,16.33
2024-01-11T08:17:00,mnr,16.45
2024-01-11T08:18:00,mnr,16.33
2024-01-11T08:19:00,mnr,26.47
2024-01-11T08:20:00,mnr,16.22
2024-01-11T08:21:00,mnr,16.32
2024-01-11T08:22:00,mnr,16.40
2024-01-11T08:23:00,mnr,17.05
2024-01-11T08:24:00,mnr,16.32
2024-01-11T08:25:00,mnr,17.62
2024-01-11T08:26:00,mnr,16.84
2024-01-11T08:27:00,mnr,16.97
2024-01-11T08:28:00,mnr,16.32
2024-01-11T08:29:00,mnr,16.37
2024-01-11T08:30:00,mnr,17.74
2024-01-11T08:31:00,mnr,16.91
2024-01-11T08:32:00,mnr,16.52
2024-01-11T08:33:00,mnr,16.31
2024-01-11T08:34:00,mnr,16.29
2024-01-11T08:35:00,mnr,16.86
2024-01-11T08:36:00,mnr,16.24
2024-01-11T08:37:00,mnr,16.24
2024-01-11T08:38:00,mnr,16.59
2024-01-11T08:39:00,mnr,16.74
2024-01-11T08:40:00,mnr,16.82
2024-01-11T08:41:00,mnr,16.38
2024-01-11T08:42:00,mnr,16.02
2024-01-11T08:43:00,mnr,17.10
2024-01-11T08:44:00,mnr,15.70
2024-01-11T08:45:00,mnr,15.76
2024-01-11T08:46:00,mnr,15.65
2024-01-11T08:47:00,mnr,15.25
2024-01-11T08:48:00,mnr,15.75
2024-01-11T08:49:00,mnr,15.33
2024-01-11T08:50:00,mnr,15.27
2024-01-11T08:51:00,mnr,15.43
2024-01-11T08:52:00,mnr,15.58
2024-01-11T08:53:00,mnr,15.83
2024-01-11T08:54:00,mnr,15.85
2024-01-11T08:55:00,mnr,15.59
2024-01-11T08:56:00,mnr,12.27
2024-01-11T08:57:00,mnr,15.90
2024-01-11T08:58:00,mnr,17.94
2024-01-11T08:59:00,mnr,17.30
2024-01-11T09:00:00,mnr,17.97
2024-01-11T09:01:00,mnr,17.96
2024-01-11T09:02:00,mnr,17.93
2024-01-11T09:03:00,mnr,16.58
2024-01-11T09:04:00,mnr,17.16
2024-01-11T09:05:00,mnr,16.58
2024-01-11T09:06:00,mnr,16.59
2024-01-11T09:07:00,mnr,16.55
2024-01-11T09:08:00,mnr,16.73
2024-01-11T09:09:00,mnr,16.33
2024-01-11T09:10:00,mnr,16.02
2024-01-11T09:11:00,mnr,16.02
2024-01-11T09:12:00,mnr,16.16
2024-01-11T09:13:00,mnr,17.89
2024-01-11T09:14:00,mnr,17.02
2024-01-11T09:15:00,mnr,16.66
2024-01-11T09:16:00,mnr,16.74
2024-01-11T09:17:00,mnr,17.47
2024-01-11T09:18:00,mnr,16.29
2024-01-11T09:19:00,mnr,12.98
2024-01-11T09:20:00,mnr,16.26
2024-01-11T09:21:00,mnr,16.30
2024-01-11T09:22:00,mnr,16.25
2024-01-11T09:23:00,mnr,16.74
2024-01-11T09:24:00,mnr,16.42
2024-01-11T09:25:00,mnr,16.45
2024-01-11T09:26:00,mnr,16.31
2024-01-11T09:27:00,mnr,16.39
2024-01-11T09:28:00,mnr,16.89
2024-01-11T09:29:00,mnr,16.89
2024-01-11T09:30:00,mnr,17.26
2024-01-11T09:31:00,mnr,16.61
2024-01-11T09:32:00,mnr,17.76
2024-01-11T09:33:00,mnr,16.41
2024-01-11T09:34:00,mnr,16.79
2024-01-11T09:35:00,mnr,17.14
2024-01-11T09:36:00,mnr,17.09
2024-01-11T09:37:00,mnr,17.04
2024-01-11T09:38:00,mnr,17.08
2024-01-11T09:39:00,mnr,18.00
2024-01-11T09:40:00,mnr,16.52
2024-01-11T09:41:00,mnr,17.72
2024-01-11T09:42:00,mnr,17.38
2024-01-11T09:43:00,mnr,19.10
2024-01-11T09:44:00,mnr,17.14
2024-01-11T09:45:00,mnr,17.33
2024-01-11T09:46:00,mnr,17.77
2024-01-11T09:47:00,mnr,18.75
2024-01-11T09:48:00,mnr,17.17
2024-01-11T09:49:00,mnr,16.90
2024-01-11T09:50:00,mnr,17.61
2024-01-11T09:51:00,mnr,17.50
2024-01-11T09:52:00,mnr,18.34
2024-01-11T09:53:00,mnr,17.25
2024-01-11T09:54:00,mnr,17.30
2024-01-11T09:55:00,mnr,17.38
2024-01-11T09:56:00,mnr,17.78
2024-01-11T09:57:00,mnr,18.02
2024-01-11T09:58:00,mnr,17.40
2024-01-11T09:59:00,mnr,17.26
2024-01-11T10:00:00,mnr,14.77
2024-01-11T10:01:00,mnr,17.15
2024-01-11T10:02:00,mnr,18.33
2024-01-11T10:03:00,mnr,17.12
2024-01-11T10:04:00,mnr,17.19
2024-01-11T10:05:00,mnr,17.01
2024-01-11T10:06:00,mnr,17.09
2024-01-11T10:07:00,mnr,16.98
2024-01-11T10:08:00,mnr,17.75
2024-01-11T10:09:00,mnr,17.30
2024-01-11T10:10:00,mnr,18.74
2024-01-11T10:11:00,mnr,17.41
2024-01-11T10:12:00,mnr,17.45
2024-01-11T10:13:00,mnr,17.54
2024-01-11T10:14:00,mnr,17.42
2024-01-11T10:15:00,mnr,17.49
2024-01-11T10:16:00,mnr,18.88
2024-01-11T10:17:00,mnr,17.68
2024-01-11T10:18:00,mnr,17.64
2024-01-11T10:19:00,mnr,17.67
2024-01-11T10:20:00,mnr,17.79
2024-01-11T10:21:00,mnr,17.62
2024-01-11T10:22:00,mnr,18.21
2024-01-11T10:23:00,mnr,18.46
2024-01-11T10:24:00,mnr,18.12
2024-01-11T10:25:00,mnr,18.21
2024-01-11T10:26:00,mnr,17.85
2024-01-11T10:27:00,mnr,19.69
2024-01-11T10:28:00,mnr,19.32
2024-01-11T10:29:00,mnr,28.25
2024-01-11T10:30:00,mnr,18.38
2024-01-11T10:31:00,mnr,18.99
2024-01-11T10:32:00,mnr,18.96
2024-01-11T10:33:00,mnr,18.49
2024-01-11T10:34:00,mnr,18.32
2024-01-11T10:35:00,mnr,18.20
2024-01-11T10:36:00,mnr,18.25
2024-01-11T10:37:00,mnr,18.84
2024-01-11T10:38:00,mnr,18.14
2024-01-11T10:39:00,mnr,18.10
2024-01-11T10:40:00,mnr,18.17
2024-01-11T10:41:00,mnr,18.15
2024-01-11T10:42:00,mnr,18.09
2024-01-11T10:43:00,mnr,18.01
2024-01-11T10:44:00,mnr,19.28
2024-01-11T10:45:00,mnr,17.59
2024-01-11T10:46:00,mnr,17.57
2024-01-11T10:47:00,mnr,17.59
2024-01-11T10:48:00,mnr,18.05
2024-01-11T10:49:00,mnr,17.42
2024-01-11T10:50:00,mnr,16.77
2024-01-11T10:51:00,mnr,17.50
2024-01-11T10:52:00,mnr,18.25
2024-01-11T10:53:00,mnr,17.41
2024-01-11T10:54:00,mnr,17.44
2024-01-11T10:55:00,mnr,17.82
2024-01-11T10:56:00,mnr,17.46
2024-01-11T10:57:00,mnr,17.51
2024-01-11T10:58:00,mnr,19.45
2024-01-11T10:59:00,mnr,17.67
2024-01-11T11:00:00,mnr,17.77
2024-01-11T11:01:00,mnr,18.37
2024-01-11T11:02:00,mnr,18.31
2024-01-11T11:03:00,mnr,18.17
2024-01-11T11:04:00,mnr,18.36
2024-01-11T11:05:00,mnr,18.21
2024-01-11T11:06:00,mnr,18.30
2024-01-11T11:07:00,mnr,18.31
2024-01-11T11:08:00,mnr,18.51
2024-01-11T11:09:00,mnr,18.25
2024-01-11T11:10:00,mnr,18.34
2024-01-11T11:11:00,mnr,18.40
2024-01-11T11:12:00,mnr,18.91
2024-01-11T11:13:00,mnr,18.24
2024-01-11T11:14:00,mnr,18.33
2024-01-11T11:15:00,mnr,18.29
2024-01-11T11:16:00,mnr,18.35
2024-01-11T11:17:00,mnr,18.31
2024-01-11T11:18:00,mnr,18.58
2024-01-11T11:19:00,mnr,18.11
2024-01-11T11:20:00,mnr,18.74
2024-01-11T11:21:00,mnr,19.16
2024-01-11T11:22:00,mnr,18.50
2024-01-11T11:23:00,mnr,17.87
2024-01-11T11:24:00,mnr,17.77
2024-01-11T11:25:00,mnr,17.75
2024-01-11T11:26:00,mnr,17.69
2024-01-11T11:27:00,mnr,17.54
2024-01-11T11:28:00,mnr,17.55
2024-01-11T11:29:00,mnr,17.73
2024-01-11T11:30:00,mnr,17.73
2024-01-11T11:31:00,mnr,17.77
2024-01-11T11:32:00,mnr,17.26
2024-01-11T11:33:00,mnr,17.82
2024-01-11T11:34:00,mnr,17.41
2024-01-11T11:35:00,mnr,17.90
2024-01-11T11:36:00,mnr,17.63
2024-01-11T11:37:00,mnr,17.38
2024-01-11T11:38:00,mnr,17.64
2024-01-11T11:39:00,mnr,17.45
2024-01-11T11:40:00,mnr,18.54
2024-01-11T11:41:00,mnr,18.19
2024-01-11T11:42:00,mnr,17.63
2024-01-11T11:43:00,mnr,19.25
2024-01-11T11:44:00,mnr,17.54
2024-01-11T11:45:00,mnr,17.48
2024-01-11T11:46:00,mnr,17.36
2024-01-11T11:47:00,mnr,17.30
2024-01-11T11:48:00,mnr,17.96
2024-01-11T11:49:00,mnr,17.43
2024-01-11T11:50:00,mnr,17.37
2024-01-11T11:51:00,mnr,17.87
2024-01-11T11:52:00,mnr,17.84
2024-01-11T11:53:00,mnr,18.56
2024-01-11T11:54:00,mnr,18.20
2024-01-11T11:55:00,mnr,19.00
2024-01-11T11:56:00,mnr,17.79
2024-01-11T11:57:00,mnr,18.14
2024-01-11T11:58:00,mnr,18.05
2024-01-11T11:59:00,mnr,17.87
2024-01-11T12:00:00,mnr,17.93
2024-01-11T12:01:00,mnr,18.08
2024-01-11T12:02:00,mnr,18.62
2024-01-11T12:03:00,mnr,18.01
2024-01-11T12:04:00,mnr,18.72
2024-01-11T12:05:00,mnr,18.00
2024-01-11T12:06:00,mnr,17.20
2024-01-11T12:07:00,mnr,16.82
2024-01-11T12:08:00,mnr,16.91
2024-01-11T12:09:00,mnr,17.75
2024-01-11T12:10:00,mnr,16.87
2024-01-11T12:11:00,mnr,16.71
2024-01-11T12:12:00,mnr,17.50
2024-01-11T12:13:00,mnr,17.13
2024-01-11T12:14:00,mnr,18.19
2024-01-11T12:15:00,mnr,17.09
2024-01-11T12:16:00,mnr,16.41
2024-01-11T12:17:00,mnr,16.38
2024-01-11T12:18:00,mnr,16.46
2024-01-11T12:19:00,mnr,16.28
2024-01-11T12:20:00,mnr,16.25
2024-01-11T12:21:00,mnr,16.70
2024-01-11T12:22:00,mnr,16.93
2024-01-11T12:23:00,mnr,16.28
2024-01-11T12:24:00,mnr,16.67
2024-01-11T12:25:00,mnr,13.75
2024-01-11T12:26:00,mnr,16.26
2024-01-11T12:27:00,mnr,16.19
2024-01-11T12:28:00,mnr,17.28
2024-01-11T12:29:00,mnr,16.36
2024-01-11T12:30:00,mnr,17.17
2024-01-11T12:31:00,mnr,16.67
2024-01-11T12:32:00,mnr,15.95
2024-01-11T12:33:00,mnr,16.08
2024-01-11T12:34:00,mnr,16.25
2024-01-11T12:35:00,mnr,15.95
2024-01-11T12:36:00,mnr,16.00
2024-01-11T12:37:00,mnr,16.17
2024-01-11T12:38:00,mnr,16.82
2024-01-11T12:39:00,mnr,16.08
2024-01-11T12:40:00,mnr,16.00
2024-01-11T12:41:00,mnr,15.96
2024-01-11T12:42:00,mnr,16.65
2024-01-11T12:43:00,mnr,15.97
2024-01-11T12:44:00,mnr,16.57
2024-01-11T12:45:00,mnr,15.96
2024-01-11T12:46:00,mnr,15.77
2024-01-11T12:47:00,mnr,16.07
2024-01-11T12:48:00,mnr,15.95
2024-01-11T12:49:00,mnr,17.36
2024-01-11T12:50:00,mnr,17.08
2024-01-11T12:51:00,mnr,17.40
2024-01-11T12:52:00,mnr,16.51
2024-01-11T12:53:00,mnr,15.72
2024-01-11T12:54:00,mnr,15.75
2024-01-11T12:55:00,mnr,15.80
2024-01-11T12:56:00,mnr,16.35
2024-01-11T12:57:00,mnr,15.80
2024-01-11T12:58:00,mnr,15.83
2024-01-11T12:59:00,mnr,16.03
2024-01-11T13:00:00,mnr,15.93
2024-01-11T13:01:00,mnr,16.80
2024-01-11T13:02:00,mnr,16.24
2024-01-11T13:03:00,mnr,16.33
2024-01-11T13:04:00,mnr,16.17
2024-01-11T13:05:00,mnr,16.11
2024-01-11T13:06:00,mnr,16.04
2024-01-11T13:07:00,mnr,16.02
2024-01-11T13:08:00,mnr,16.07
2024-01-11T13:09:00,mnr,16.59
2024-01-11T13:10:00,mnr,16.00
2024-01-11T13:11:00,mnr,15.99
2024-01-11T13:12:00,mnr,15.97
2024-01-11T13:13:00,mnr,16.59
2024-01-11T13:14:00,mnr,15.71
2024-01-11T13:15:00,mnr,15.86
2024-01-11T13:16:00,mnr,16.00
2024-01-11T13:17:00,mnr,15.92
2024-01-11T13:18:00,mnr,16.52
2024-01-11T13:19:00,mnr,16.01
2024-01-11T13:20:00,mnr,16.01
2024-01-11T13:21:00,mnr,16.06
2024-01-11T13:22:00,mnr,16.10
2024-01-11T13:23:00,mnr,16.52
2024-01-11T13:24:00,mnr,16.43
2024-01-11T13:25:00,mnr,17.18
2024-01-11T13:26:00,mnr,16.53
2024-01-11T13:27:00,mnr,16.56
2024-01-11T13:28:00,mnr,16.57
2024-01-11T13:29:00,mnr,16.36
2024-01-11T13:30:00,mnr,16.22